Location: Hauppauge
(40.8260°N, 73.2030°W)
Time: 17:18:07
(UTC-05:00)

Daily predictions for brighter satellites

Satellite Brightness Start Highest point End
(mag) Time Altitude Azimuth Time Altitude Azimuth Time Altitude Azimuth
COSMO-SKYMED 1 4.3 16:52:50 10° NE 16:55:24 15° E 16:57:57 10° SE
SJ-12 4.2 16:52:26 10° SE 16:56:21 46° ENE 17:00:19 10° N
NOSS 2-1 (E) 4.3 16:53:12 10° S 16:56:36 30° ESE 17:00:18 10° NE
Cosmos 921 Rocket 3.8 16:55:39 10° SSE 16:59:26 32° E 17:03:19 10° NE
Meteor 1-18 Rocket 4.3 16:55:42 10° S 17:01:22 86° E 17:07:12 10° N
IDEFIX/ARIANE 42P 2.7 16:58:19 10° SSE 17:03:21 55° ENE 17:08:26 10° N
Genesis I 3.5 17:01:06 10° NW 17:05:02 73° WSW 17:08:55 10° SSE
Thor Agena Rocket 3.7 16:59:54 10° NNE 17:05:04 57° ESE 17:10:15 10° S
Okean 1 3.3 17:01:06 10° S 17:05:08 73° E 17:09:13 10° NNE
Abrixas 2.3 17:02:28 10° WNW 17:05:25 69° NNE 17:08:22 10° ESE
Cosmos 1238 Rocket 2.8 17:03:58 10° SSW 17:06:53 60° W 17:10:07 10° N
Intercosmos 25 4.2 17:04:23 10° NNE 17:06:55 21° ENE 17:09:39 10° SE
Timation 2 Rocket 4.3 17:00:41 10° NNW 17:07:27 60° ENE 17:14:14 10° SE
Cosmos 1833 Rocket 3.0 17:02:47 10° N 17:08:10 43° ENE 17:13:28 10° SE
Cosmos 1346 Rocket 2.8 17:04:43 10° S 17:08:31 55° E 17:12:18 10° NNE
Cosmos 1536 Rocket 3.6 17:04:28 10° S 17:08:56 89° E 17:13:26 10° N
USA 234 3.3 17:09:18 10° NE 17:15:52 75° SE 17:22:24 10° SW
Cosmos 2082 Rocket 2.2 17:11:54 10° NNW 17:17:31 60° ENE 17:23:07 10° SE
YAOGAN 1 2.5 17:14:38 10° SSE 17:18:56 70° ENE 17:23:15 10° N
PAYLOAD A 4.4 17:15:34 10° S 17:20:23 67° W 17:25:27 10° NNW
Cosmos 1500 3.2 17:20:58 10° N 17:24:50 90° S 17:28:41 10° S
CZ-2C R/B 2.5 17:21:22 10° SSE 17:26:24 88° WSW 17:31:36 10° NNW
Timation 1 Rocket 4.3 17:21:21 10° SSW 17:27:16 72° ESE 17:33:14 10° NNE
Cosmos 1743 3.0 17:23:38 10° N 17:27:21 43° ENE 17:31:01 10° SSE
Nadezhda 3 Rocket 4.0 17:23:16 10° S 17:29:25 67° E 17:35:39 10° NNE
NOSS 3-4 (A) 4.0 17:23:40 10° NNW 17:30:23 47° NE 17:37:28 10° ESE
NOSS 3-4 (C) 4.1 17:23:47 10° NNW 17:30:29 47° NE 17:37:33 10° ESE
Meteor 1-19 Rocket 4.3 17:33:32 10° S 17:39:16 64° E 17:45:04 10° NNE
Delta 2 Rocket 4.2 17:38:46 10° WSW 17:42:06 37° S 17:44:48 16° ESE
Cosmos 407 Rocket 4.2 17:38:51 10° N 17:43:22 30° ENE 17:47:53 10° ESE
SKYMED 2 3.7 17:39:30 10° NNE 17:43:45 50° E 17:47:58 10° S
Cosmos 1484 Rocket 2.7 17:41:18 10° SSE 17:44:57 57° ENE 17:48:37 10° N
Cosmos 2056 Rocket 3.8 17:40:18 10° S 17:45:26 48° ESE 17:49:18 17° NE
GRACE-2 3.7 17:44:39 10° S 17:47:25 82° E 17:49:48 13° N
GRACE-1 3.7 17:45:04 10° S 17:47:50 85° E 17:50:17 13° N
SMAP 4.1 17:46:39 10° S 17:51:08 49° W 17:55:40 10° NNW
Cosmos 2369 Rocket 3.4 17:51:04 10° SSE 17:54:58 21° ESE 17:54:58 21° ESE
Meteor 2-9 Rocket 4.1 17:50:31 10° N 17:55:49 53° ENE 18:01:00 10° SSE
Okean 2 3.9 17:52:17 10° SSE 17:56:08 38° E 17:57:07 33° ENE
Cosmos 1892 Rocket 4.0 17:53:45 10° SSE 17:57:45 37° E 17:58:40 33° ENE
Cosmos 1624 Rocket 3.9 17:53:05 10° S 17:58:13 68° ESE 18:02:04 18° NNE
NOAA 12 4.3 17:55:19 10° SE 18:00:16 44° ENE 18:05:14 10° N
Meteor 1-23 Rocket 4.2 17:56:18 10° S 18:01:54 61° E 18:07:28 10° NNE
Meteor 2-4 Rocket 3.5 17:58:02 10° S 18:03:22 73° E 18:08:43 10° NNE
Okean 1-7 Rocket 4.0 17:59:23 10° SSW 18:03:50 64° W 18:08:17 10° N
Cosmos 1371 Rocket 4.0 17:58:52 10° SSW 18:04:13 86° WNW 18:08:53 14° NNE
Cosmos 1726 Rocket 3.8 17:59:55 10° N 18:04:14 47° E 18:08:32 10° SSE
CZ-4 R/B 4.1 18:03:59 10° SSW 18:07:14 22° W 18:10:29 10° NW
Tiangong 1 1.3 18:06:32 10° W 18:09:19 54° NNW 18:09:19 54° NNW
Meteor 2-8 Rocket 4.4 18:03:41 10° S 18:09:40 64° E 18:15:43 10° NNE
ISS -0.8 18:09:53 10° NNW 18:10:48 13° N 18:10:48 13° N
Cosmos 1934 Rocket 3.9 18:06:29 10° N 18:12:43 75° E 18:19:01 10° SSE
NOSS 7 (H) 4.2 18:12:48 10° SSW 18:16:08 89° SSE 18:16:13 86° NE
Cosmos 1340 3.7 18:16:38 10° S 18:18:56 33° SSE 18:18:56 33° SSE
Cosmos 1606 Rocket 3.5 18:19:18 10° N 18:23:49 87° W 18:28:16 10° S
METEOR-M 4.0 18:21:40 10° SSE 18:26:56 66° ENE 18:32:14 10° N
COSMO-SKYMED 1 3.5 18:28:03 13° N 18:31:47 46° WNW 18:35:55 10° SW
Cosmos 1452 Rocket 3.6 18:29:13 10° S 18:33:52 53° ESE 18:33:52 53° ESE
Cosmos 1190 Rocket 4.0 18:30:05 10° NNW 18:35:21 79° WSW 18:40:32 10° SSE
GEOS 3 Rocket 3.6 18:36:10 55° NE 18:36:10 55° NE 18:40:56 10° NNW
Cosmos 1025 Rocket 4.3 18:34:42 10° SSW 18:38:50 40° WNW 18:42:27 13° N
Cosmos 1666 3.9 18:35:19 10° NNW 18:39:01 43° W 18:42:41 10° SSW
Cosmos 1153 Rocket 4.3 18:44:46 10° N 18:50:55 71° E 18:57:01 10° SSE
Cosmos 1605 Rocket 4.2 18:51:56 10° NNW 18:58:11 70° W 19:04:18 10° S
USA 234 4.2 18:56:14 30° NNE 18:58:34 39° NNW 19:04:29 10° W
CZ-3B DEB 4.2 18:55:57 10° WNW 19:01:32 35° N 19:04:32 30° NNE
BREEZE M DEB (TANK) 4.3 19:26:30 10° WNW 19:31:33 74° SSW 19:34:19 53° SSE
Cosmos 2369 Rocket 3.4 19:33:13 10° SW 19:36:50 37° WSW 19:36:50 37° WSW
FALCON 9 R/B 3.6 19:35:26 10° W 19:49:07 48° SSW 19:49:07 48° SSW
